Regional Weather Roundup
Issued by NWS Wakefield, VA

Home | Current Version | Previous Version | Graphics & Text | Print | Product List | Glossary On
Versions: 1 2 3 4 5 6 7 8 9 10 11 12 13 14 15 16 17 18 19 20 21 22 23 24 25 26 27 28 29 30 31 32 33 34 35 36 37 38 39 40 41 42 43 44 45 46 47 48 49 50
000
ASUS41 KAKQ 211610
RWRAKQ

REGIONAL WEATHER ROUNDUP
NATIONAL WEATHER SERVICE WAKEFIELD VA
1200 PM EDT TUE OCT 21 2014

Note: "fair" indicates few or no clouds below 12,000 feet with no
significant weather and/or obstructions to visibility. * = Denotes
station may not report precipitation (e.g., rain,snow,etc.),
thunder or fog.

VAZ042-051-052>054-056-211700-
NORTHERN VIRGINIA

CITY           SKY/WX    TMP DP  RH WIND       PRES   REMARKS
WASH NATIONAL  NOT AVBL
DULLES         MOSUNNY   65  48  54 NW5       29.86F
FORT BELVOIR   SUNNY     65  51  60 CALM      29.87F
QUANTICO       MOSUNNY   61  52  72 S3        29.88F
FREDERICKSBRG* MOSUNNY   69  49  48 NW3       29.86S
STAFFORD*      MOSUNNY   65  48  53 NW3       29.90F
WARRENTON      MOSUNNY   70  54  56 SW3       29.85F
CULPEPER*      MOSUNNY   70  46  43 NW6       29.86F
MANASSAS*      NOT AVBL
LEESBURG*      SUNNY     66  52  59 NW6       29.87F
WINCHESTER     CLOUDY    63  43  48 W5        29.86S
FRONT ROYAL*   CLOUDY    64  46  52 W3        29.85F
LURAY*         SUNNY     68  46  45 W5        29.86S
$$

VAZ048-049-060>072-079>083-211700-
CENTRAL AND SOUTH CENTRAL VIRGINIA...AND NORTH CENTRAL NORTH CAROLINA

CITY           SKY/WX    TMP DP  RH WIND       PRES   REMARKS
RICHMOND       MOSUNNY   69  49  48 VRB3      29.87F
CHESTERFIELD*  SUNNY    N/A N/A N/A CALM      29.88F
PETERSBURG*    SUNNY     69  49  48 S5        29.88F
HANOVER        MOSUNNY   68  50  52 VRB6      29.88F
TAPPAHANNOCK*  MOSUNNY   68  45  43 CALM      29.87F
CHARLOTTSVILLE SUNNY     65  48  54 S5        29.86F
ORANGE*        SUNNY     68  46  45 CALM      29.88S
LOUISA*        SUNNY     66  48  52 NW8       29.86F
FARMVILLE*     SUNNY     68  48  49 SW5       29.86F
CREWE*         SUNNY     67  48  50 W7        29.88S
FORT PICKETT*  SUNNY     68  51  55 W8        29.89S
LUNENBURG*     SUNNY     67  52  58 W5        29.89S
SOUTH HILL*    SUNNY     72  52  49 SW5       29.95S
LAWRENCEVILLE* SUNNY     68  53  59 SW9       29.88F
ROANOKE RAPIDS SUNNY     68  52  56 SW6       29.90F
RALEIGH        MOSUNNY   69  49  48 NW7       29.92F
$$

VAZ088>098-211700-
SOUTHEAST VIRGINIA

CITY           SKY/WX    TMP DP  RH WIND       PRES   REMARKS
NORFOLK        SUNNY     70  51  51 W5        29.86F
VIRGINIA BEACH MOSUNNY   73  55  53 SW9       29.86F
NORFOLK NAVAL  MOSUNNY   71  55  56 NW10      29.88F
WEST POINT*    SUNNY     70  49  48 CALM      29.88F
NEWPORT NEWS   SUNNY     72  54  53 SW8       29.87F
LANGLEY AFB    SUNNY     69  54  58 VRB7      29.86F
FORT EUSTIS    SUNNY     68  52  56 NW3       29.85F
WILLIAMSBURG*  SUNNY     72  55  56 W5        29.88S
HR EXEC AP*    SUNNY     70  54  56 SW6       29.89F
FRANKLIN*      SUNNY     70  52  52 W7        29.88F
WAKEFIELD      SUNNY     70  52  52 NW6       29.88S
$$

VAZ020-022-025-037-045-211700-
WEST CENTRAL AND SOUTHWEST VIRGINIA

CITY           SKY/WX    TMP DP  RH WIND       PRES   REMARKS
STAUNTON*      MOSUNNY   65  45  48 SW8       29.89F
HOT SPRINGS VA CLOUDY    49  45  85 W8        29.90S
LYNCHBURG      PTSUNNY   65  48  54 W6        29.91F
DANVILLE       SUNNY     69  50  50 W10       29.91F
SOUTH BOSTON*  NOT AVBL
MARTINSVILLE   PTSUNNY   69  48  45 W8        29.94F
ROANOKE        PTSUNNY   62  48  60 W10       29.93S
BLACKSBURG     PTSUNNY   59  52  77 W3        29.94F
DUBLIN*        CLOUDY    58  46  64 W7        29.94F
MARION*        CLOUDY    56  49  76 W13       29.98S
HILLSVILLE*    CLOUDY    57  44  63 W9        29.96S
RICHLANDS*     CLOUDY    55  49  80 W8        29.98R
WISE*          CLOUDY    52  46  82 W13G22    30.02R
ABINGDON*      CLOUDY    58  50  76 W9        29.99S
$$

MDZ021>025-VAZ099-100-211700-
SOUTHERN MARYLAND AND THE DELMARVA PENINSULA

CITY           SKY/WX    TMP DP  RH WIND       PRES   REMARKS
PATUXENT RIVER MOSUNNY   67  49  52 NW3       29.86F
BAY BRIDGE APT   N/A     63  50  63 W5        29.87S
LEONARDTOWN    SUNNY     66  48  52 NE3       29.88S
DOVER          MOSUNNY   66  53  61 VRB5      29.84F
GEORGETOWN     PTSUNNY   68  52  56 VRB6      29.87F
EASTON         MOSUNNY   68  54  60 CALM      29.90F
CAMBRIDGE      SUNNY     66  48  52 N5        29.86F
SALISBURY      SUNNY     71  53  52 W6        29.86F
OCEAN CITY     SUNNY     70  55  59 SW8       29.85F
WALLOPS ISLAND SUNNY     71  55  56 W9        29.86F
ACCOMACK*      SUNNY     70  52  52 W6        29.86F
$$

NCZ012>017-030>032-211700-
EASTERN NORTH CAROLINA

CITY           SKY/WX    TMP DP  RH WIND       PRES   REMARKS
ELIZABETH CITY   N/A    N/A N/A N/A SW10      29.88F
AHOSKIE*       SUNNY     68  51  54 CALM      29.90F
EDENTON*       SUNNY     70  56  60 SW6       29.89F
CURRITUCK*     SUNNY     73  51  46 SW7       29.88F
KILL DEVIL HLS SUNNY     70  57  64 NW6       29.88F
MANTEO         SUNNY     70  55  59 NE3       29.89F
CAPE HATTERAS  SUNNY     70  62  76 W6        29.91F
TARBORO*       SUNNY     71  54  54 W5        29.91F
GOLDSBORO      SUNNY     71  60  67 NW1       29.89F
WASHINGTON     SUNNY     71  53  52 W7        29.90F
GREENVILLE     SUNNY     72  54  53 W7        29.92F
NEW BERN       SUNNY     75  52  44 W7        29.91F
WILMINGTON     SUNNY     74  53  48 W7        29.92F
$$

VAZ048-211700-
ELSEWHERE

CITY           SKY/WX    TMP DP  RH WIND       PRES   REMARKS
HARRISBURG PA  CLOUDY    57  51  80 NW6       29.86F
BALTIMORE      MOSUNNY   67  48  50 W9        29.85F
ANNAPOLIS      MOSUNNY   63  52  67 SE5       29.86F
ANDREWS AFB    MOSUNNY   68  49  50 NW9       29.86F
WILMINGTON DE  MOSUNNY   64  50  60 CALM      29.87F
PHILADELPHIA   MOSUNNY   64  49  57 W6        29.87F
WILDWOOD NJ*   CLOUDY    64  52  63 NW9       29.87F
ATLANTIC CITY  PTSUNNY   66  53  63 SW6       29.85F
HENDERSON NC   SUNNY     68  49  50 W3        29.91F
GREENSBORO     MOSUNNY   68  48  48 W9        29.92F
ROCKY MOUNT    SUNNY     70  52  52 VRB5      29.90F
FAYETTEVILLE   SUNNY     73  51  46 NW7       29.92F
CHARLOTTE      MOSUNNY   70  45  40 VRB5      29.95F
$$

VAZ100-211700-
MARINE

STATION/POSITION TIME  TEMP    WIND        PRES    WAVE   SWELL
                       AIR SEA DIR/SP/G            HT/PER HT/PER
                 (UTC) (F)     (DEG/KT/KT) (MB)    (FT/S) (FT/S)
44066 TX TWR #4  1600   66 66  180/  6/  6 1012.1F   4/ 6   3/ 6
CAPE MAY NJ      1600   63 67  300/  6/  7 1010.8F
LEWES DE         1600   65 63  300/  7/  9 1010.7F
15NM E FENWICK I 1600   67 66  220/  6/  8 1011.1S   3/ 6   2/ 6
OCEAN-CITY-INLET 1600   67 66  240/  8/ 10 1010.5F
WACHAPREAGUE VA  1600   69 62  240/  5/  9 1011.0F
THOMAS POINT MD  1600   60 64  150/  3/  3 1012.4F
GOOSES REEF MD   1600   61      30/  2/  4 1012.1S
COVE POINT MD    1600   62     360/  3/  4 1011.3S
SOLOMONS ISLAND  1600      66                N/A
BISHOPS HEAD MD  1600   62 59  290/  6/  7 1010.9F
PINEY POINT MD   1600          330/  7/  8   N/A
POTOMAC MD       1600   62     300/  6/  8 1010.8F
CAMBRIDGE MD     1600   62 63  350/  4/  5 1011.1F
LEWISETTA VA     1600   63 62   60/  4/  5 1010.7F
RAPPAHANNOCK LGT 1600          270/  6/  6 1011.7F
STINGRAY PT      1600   64     320/  8/ 10 1012.0S
YORK RVR RNG VA  1600   65     270/  6/  7 1010.7F
YORKTOWN VA      1600   66 67  340/  4/  4 1010.9F
JAMESTOWN VA     1600   63     330/  8/  8   N/A
DOMINION TERM VA 1600   65     310/  4/  5 1011.5F
KIPTOPEKE VA     1600      69  270/  6/  7   N/A
CHES BAY BRIDGE  1600   65 67  260/  7/  8 1010.8F
CHESAPEAKE LGHT  1500   67     250/  9/ 10 1012.3F
WILLOUBY STN VA  1600   64     250/  7/  7 1010.1S
S CRANEY ISL VA  1600          210/  5/  8 1011.1F
CAPE HENRY BUOY  1600      69                N/A     2/ 5
1ST LANDING BUOY 1600   65     290/  8/ 10 1011.2F
CAPE CHARLES BUO 1600      69                N/A     2/ 5   2/ 5
64NM E OF VA BCH 1600   68 69  270/ 10/ 12 1011.5F   3/ 5   2/ 5
DUCK PIER NC     1600   67 69  220/  6/  7 1011.0F
44100 DUCK FRF   1600      71                N/A     2/10   2/11
44056 DUCK FRF   1600                        N/A     2/11
OREGON INLET NC  1600   68 66  230/  5/  6 1012.1F
HATTERAS NC      1600   69 71  270/  6/  8 1013.2F
DIAMOND SHLS NC  1600   70     280/ 12/ 16 1013.0F   3/11   2/11
CAPE LOOKOUT NC  1600   72     290/  5/  7 1012.9F
$$


USA.gov is the U.S. government's official web portal to all federal, state and local government web resources and services.